Home > Weather > The Settlement > Past weeks

Flag for Christmas Island Past Weather in The Settlement, Christmas Island — Yesterday and Last 2 Weeks

Now
81 °F

Partly sunny.


Feels Like: 85 °F
Forecast: 77 / 81 °F
Wind: 15 mph from Southeast

Location: Christmas Island Aerodrome

Current Time: Jun 28, 2016 at 1:16:10 PM

Latest Report: Jun 28, 2016 at 12:30 PM


Visibility: N/A

Pressure: 29.89 "Hg

Humidity: 74%

Dew Point: 72 °F

Location of The SettlementLocation

Past Weather in The Settlement — Graph

°F

The Settlement Temperature Yesterday

Maximum temperature yesterday: 81 °F (at 8:00 AM)
Minimum temperature yesterday: 75 °F (at 10:00 AM)
Average temperature yesterday: 78 °F

High & Low Weather Summary for the Past Weeks

 TemperatureHumidityPressure
High84 °F (Jun 19, 11:30 AM)100% (Jun 13, 7:00 PM)30.01 "Hg (Jun 13, 7:00 PM)
Low72 °F (Jun 18, 4:00 AM)62% (Jun 19, 1:00 PM)29.83 "Hg (Jun 17, 3:00 AM)
Average78 °F86%29.90 "Hg
* Reported Jun 13 1:00 PM — Jun 28 12:00 PM, The Settlement, Weather by CustomWeather, © 2016

Note: Actual official high and low records may vary slightly from our data, if they occured in-between our weather recording intervals... More about our weather records

Advertising

The Settlement Weather History for the Previous 24 Hours

Scroll right to see more
 ConditionsComfort  
Time TempWeatherWind HumidityBarometerVisibility
12:00 PM
Tue, Jun 28
81 °FScattered clouds.15 mph74%29.92 "HgN/A
11:30 AM81 °FScattered clouds.15 mph74%29.92 "HgN/A
11:00 AM81 °FPartly sunny.14 mph74%29.92 "HgN/A
10:30 AM81 °FPartly sunny.14 mph74%29.95 "HgN/A
10:00 AM79 °FBroken clouds.16 mph79%29.95 "HgN/A
9:30 AM81 °FPartly sunny.14 mph74%29.95 "HgN/A
9:00 AM79 °FBroken clouds.13 mph79%29.95 "HgN/A
8:30 AM79 °FScattered clouds.14 mph79%29.95 "HgN/A
8:00 AM79 °FBroken clouds.13 mph79%29.95 "HgN/A
7:30 AM79 °FScattered clouds.13 mph79%29.92 "HgN/A
7:00 AM77 °FScattered clouds.12 mph79%29.92 "HgN/A
6:30 AM77 °FScattered clouds.10 mph83%29.89 "HgN/A
6:00 AM77 °FPartly cloudy.12 mph83%29.89 "HgN/A
5:30 AM77 °FPartly cloudy.12 mph83%29.89 "HgN/A
5:00 AM77 °FPassing clouds.10 mph83%29.89 "HgN/A
4:30 AM77 °FPassing clouds.9 mph83%29.89 "HgN/A
4:00 AM77 °FMostly cloudy.10 mph89%29.89 "HgN/A
3:30 AM77 °FLight rain. Passing clouds.10 mph83%29.89 "HgN/A
3:00 AM77 °FPassing clouds.10 mph89%29.89 "HgN/A
2:56 AM77 °FPartly cloudy.10 mph83%29.89 "HgN/A
2:00 AM77 °FPassing clouds.10 mph89%29.89 "HgN/A
1:30 AM77 °FMostly cloudy.10 mph89%29.89 "HgN/A
1:01 AM77 °FPassing clouds.12 mph89%29.89 "HgN/A
12:00 AM77 °FPassing clouds.10 mph89%29.92 "HgN/A
11:30 PM
Mon, Jun 27
77 °FPassing clouds.9 mph89%29.95 "HgN/A
11:00 PM77 °FMostly cloudy.9 mph89%29.95 "HgN/A
10:00 PM77 °FMostly cloudy.8 mph89%29.95 "HgN/A
9:58 PM77 °FPassing clouds.8 mph89%29.95 "HgN/A
9:00 PM79 °FMostly cloudy.9 mph84%29.95 "HgN/A
8:30 PM77 °FPassing clouds.7 mph89%29.95 "HgN/A
8:00 PM77 °FPassing clouds.8 mph89%29.92 "HgN/A
7:30 PM79 °FPassing clouds.8 mph84%29.92 "HgN/A
7:00 PM77 °FMostly cloudy.7 mph89%29.92 "HgN/A
6:30 PM79 °FPassing clouds.8 mph84%29.92 "HgN/A
6:00 PM77 °FPassing clouds.6 mph89%29.89 "HgN/A
5:30 PM79 °FPartly sunny.6 mph84%29.89 "HgN/A
5:00 PM79 °FPartly sunny.8 mph84%29.89 "HgN/A
4:30 PM79 °FMostly cloudy.8 mph84%29.89 "HgN/A
4:02 PM79 °FSprinkles. Mostly cloudy.5 mph89%29.89 "HgN/A
3:30 PM79 °FScattered clouds.7 mph84%29.86 "HgN/A
3:00 PM79 °FScattered clouds.7 mph84%29.86 "HgN/A
2:30 PM79 °FBroken clouds.6 mph89%29.89 "HgN/A
2:00 PM77 °FBroken clouds.5 mph89%29.89 "HgN/A
1:00 PM77 °FBroken clouds.7 mph89%29.89 "HgN/A
Weather by CustomWeather, © 2016

See weather overviewHow to use our weather pages